Overview Statistics Trail Chart Weather Telemetry Raw packets
 

This is the latest recevied weather packets stored in our database for station/object EA4URC-13. If no packets are shown the sender has not sent any weather packets the latest 10 day(s).

<< 34 35 36 37 38 39 40 >>
Time Temp. Humidity Pressure Rain* Wind** Luminosity Snow
1787848358 25° C 26% 1020.4 hPa - - - -
1787847458 26.11° C 25% 1020.3 hPa - - - -
1787846558 26.67° C 25% 1020.3 hPa - - - -
1787845658 25.56° C 26% 1020.3 hPa - - - -
1787844758 25.56° C 27% 1020.2 hPa - - - -
1787843858 26.67° C 27% 1020.1 hPa - - - -
1787842958 26.11° C 28% 1020.1 hPa - - - -
1787842058 26.11° C 27% 1020 hPa - - - -
1787841158 26.67° C 27% 1020.1 hPa - - - -
1787840258 26.11° C 27% 1020 hPa - - - -
1787839357 25.56° C 29% 1019.9 hPa - - - -
1787838457 26.67° C 27% 1020 hPa - - - -
1787837557 26.67° C 29% 1020.1 hPa - - - -
1787836657 25° C 32% 1020 hPa - - - -
1787835757 26.11° C 31% 1019.3 hPa - - - -
1787834857 26.67° C 31% 1019.9 hPa - - - -
1787833958 25.56° C 31% 1019.4 hPa - - - -
1787833058 26.11° C 30% 1020 hPa - - - -
1787832158 24.44° C 34% 1020 hPa - - - -
1787831258 25° C 33% 1020.1 hPa - - - -
1787830358 25° C 31% 1020 hPa - - - -
1787829458 25.56° C 34% 1020.2 hPa - - - -
1787828564 25.56° C 33% 1020.1 hPa - - - -
1787827658 24.44° C 35% 1020 hPa - - - -
1787826757 26.11° C 33% 1020.1 hPa - - - -

* Rain since midnight (hover to see other rain measurements)
** Current wind speed in m/s (hover to see current wind gust speed)